EN

Hourly Weather Abramovo

Today, 29 November, Sunday

Time Temperature Precipitation Wind Pressure Humidity
00:00 -1°C° 0 mm 3 mps 751 mmHg 92%
01:00 -2°C° 0 mm 3 mps 751 mmHg 92%
02:00 -3°C° 0 mm 4 mps 751 mmHg 94%
03:00 -2°C° 0.2 mm 4 mps 751 mmHg 95%
04:00 -2°C° 0.2 mm 4 mps 750 mmHg 95%
05:00 -2°C° 0.2 mm 5 mps 750 mmHg 96%
06:00 -2°C° 0.6 mm 5 mps 750 mmHg 96%
07:00 -2°C° 0.6 mm 5 mps 749 mmHg 96%
08:00 -2°C° 0.6 mm 5 mps 749 mmHg 97%
09:00 -2°C° 0.3 mm 4 mps 749 mmHg 97%
10:00 0°C° 0.3 mm 3 mps 749 mmHg 97%
11:00 0°C° 0.3 mm 3 mps 749 mmHg 98%
12:00 +1°C° 0 mm 2 mps 748 mmHg 98%
13:00 +2°C° 0 mm 2 mps 748 mmHg 98%
14:00 +2°C° 0 mm 2 mps 748 mmHg 98%
15:00 +2°C° 0.5 mm 2 mps 748 mmHg 98%
16:00 +2°C° 0.5 mm 1 mps 748 mmHg 99%
17:00 +2°C° 0.5 mm 1 mps 748 mmHg 99%
18:00 +2°C° 0.4 mm 1 mps 748 mmHg 99%
19:00 +2°C° 0.4 mm 1 mps 749 mmHg 99%
20:00 +1°C° 0.4 mm 2 mps 749 mmHg 98%
21:00 +1°C° 0.1 mm 2 mps 749 mmHg 96%
22:00 -1°C° 0.1 mm 2 mps 749 mmHg 94%
23:00 -1°C° 0.1 mm 2 mps 750 mmHg 92%

Tomorrow, 30 November, Monday

Time Temperature Precipitation Wind Pressure Humidity
00:00 -1°C° 0 mm 2 mps 750 mmHg 93%
01:00 -2°C° 0 mm 2 mps 750 mmHg 93%
02:00 -2°C° 0 mm 2 mps 751 mmHg 93%
03:00 -2°C° 0 mm 2 mps 751 mmHg 93%
04:00 -2°C° 0 mm 3 mps 751 mmHg 94%
05:00 -2°C° 0 mm 3 mps 750 mmHg 94%
06:00 -2°C° 0 mm 3 mps 751 mmHg 94%
07:00 -2°C° 0 mm 3 mps 751 mmHg 94%
08:00 -2°C° 0 mm 3 mps 751 mmHg 95%
09:00 -2°C° 0 mm 3 mps 751 mmHg 91%
10:00 -2°C° 0 mm 3 mps 751 mmHg 88%
11:00 -2°C° 0 mm 3 mps 751 mmHg 85%
12:00 -2°C° 0 mm 3 mps 751 mmHg 85%
13:00 -2°C° 0 mm 3 mps 751 mmHg 85%
14:00 -2°C° 0 mm 3 mps 752 mmHg 85%
15:00 -2°C° 0 mm 3 mps 752 mmHg 86%
16:00 -2°C° 0 mm 3 mps 752 mmHg 87%
17:00 -2°C° 0 mm 3 mps 752 mmHg 88%
18:00 -2°C° 0 mm 3 mps 752 mmHg 87%
19:00 -2°C° 0 mm 3 mps 752 mmHg 86%
20:00 -2°C° 0 mm 3 mps 753 mmHg 86%
21:00 -2°C° 0 mm 3 mps 753 mmHg 88%
22:00 -3°C° 0 mm 2 mps 753 mmHg 89%
23:00 -3°C° 0 mm 2 mps 753 mmHg 91%

Day after tomorrow, 1 December, Tuesday

Time Temperature Precipitation Wind Pressure Humidity
00:00 -3°C° 0 mm 2 mps 753 mmHg 92%
01:00 -4°C° 0 mm 2 mps 753 mmHg 93%
02:00 -4°C° 0 mm 2 mps 754 mmHg 94%
03:00 -4°C° 0 mm 2 mps 754 mmHg 93%
04:00 -4°C° 0 mm 2 mps 754 mmHg 92%
05:00 -4°C° 0 mm 2 mps 754 mmHg 91%
06:00 -4°C° 0 mm 2 mps 754 mmHg 90%
07:00 -4°C° 0 mm 2 mps 755 mmHg 89%
08:00 -4°C° 0 mm 2 mps 755 mmHg 88%
09:00 -3°C° 0 mm 2 mps 755 mmHg 86%
10:00 -3°C° 0 mm 2 mps 755 mmHg 84%
11:00 -2°C° 0 mm 2 mps 756 mmHg 82%
12:00 -2°C° 0 mm 2 mps 756 mmHg 82%
13:00 0°C° 0 mm 1 mps 756 mmHg 83%
14:00 0°C° 0 mm 1 mps 756 mmHg 83%
15:00 -1°C° 0 mm 1 mps 756 mmHg 85%
16:00 -1°C° 0 mm 1 mps 757 mmHg 87%
17:00 -2°C° 0 mm 1 mps 757 mmHg 90%
18:00 -2°C° 0 mm 1 mps 757 mmHg 90%
19:00 -2°C° 0 mm 1 mps 757 mmHg 90%
20:00 -2°C° 0 mm 1 mps 758 mmHg 90%
21:00 -3°C° 0 mm 1 mps 758 mmHg 90%
22:00 -3°C° 0 mm 1 mps 758 mmHg 90%
23:00 -3°C° 0 mm 1 mps 758 mmHg 89%

2 December, Wednesday

Time Temperature Precipitation Wind Pressure Humidity
00:00 -3°C° 0 mm 1 mps 758 mmHg 89%
01:00 -3°C° 0 mm 1 mps 758 mmHg 89%
02:00 -3°C° 0 mm 1 mps 758 mmHg 89%
03:00 -3°C° 0 mm 1 mps 758 mmHg 89%
04:00 -3°C° 0 mm 1 mps 758 mmHg 89%
05:00 -3°C° 0 mm 1 mps 758 mmHg 89%
06:00 -3°C° 0 mm 1 mps 758 mmHg 90%
07:00 -3°C° 0 mm 1 mps 758 mmHg 91%
08:00 -5°C° 0 mm 2 mps 758 mmHg 91%
09:00 -4°C° 0 mm 2 mps 758 mmHg 91%
10:00 -4°C° 0 mm 2 mps 758 mmHg 91%
11:00 -3°C° 0 mm 2 mps 758 mmHg 91%
12:00 -2°C° 0 mm 2 mps 758 mmHg 91%
13:00 -2°C° 0 mm 2 mps 757 mmHg 91%
14:00 -1°C° 0 mm 2 mps 757 mmHg 91%
15:00 -2°C° 0 mm 2 mps 757 mmHg 90%
16:00 -2°C° 0 mm 3 mps 757 mmHg 89%
17:00 -2°C° 0 mm 3 mps 757 mmHg 89%
18:00 -2°C° 0 mm 3 mps 757 mmHg 89%
19:00 -4°C° 0 mm 3 mps 756 mmHg 90%
20:00 -5°C° 0 mm 3 mps 756 mmHg 91%
21:00 -5°C° 0 mm 3 mps 756 mmHg 90%
22:00 -5°C° 0 mm 3 mps 756 mmHg 90%
23:00 -5°C° 0 mm 3 mps 756 mmHg 89%

3 December, Thursday

Time Temperature Precipitation Wind Pressure Humidity
00:00 -5°C° 0 mm 3 mps 756 mmHg 88%
01:00 -5°C° 0 mm 3 mps 756 mmHg 87%
02:00 -5°C° 0 mm 3 mps 756 mmHg 86%
03:00 -5°C° 0 mm 3 mps 756 mmHg 86%
04:00 -5°C° 0 mm 3 mps 755 mmHg 87%
05:00 -5°C° 0 mm 3 mps 755 mmHg 88%
06:00 -5°C° 0 mm 3 mps 755 mmHg 89%
07:00 -5°C° 0 mm 3 mps 755 mmHg 90%
08:00 -5°C° 0 mm 3 mps 755 mmHg 91%
09:00 -5°C° 0 mm 4 mps 755 mmHg 90%
10:00 -5°C° 0 mm 4 mps 755 mmHg 89%
11:00 -4°C° 0 mm 4 mps 755 mmHg 88%
12:00 -4°C° 0 mm 4 mps 755 mmHg 88%
13:00 -4°C° 0 mm 4 mps 755 mmHg 88%
14:00 -4°C° 0 mm 3 mps 755 mmHg 88%
15:00 -4°C° 0 mm 3 mps 755 mmHg 89%
16:00 -5°C° 0 mm 3 mps 755 mmHg 91%
17:00 -5°C° 0 mm 3 mps 755 mmHg 92%
18:00 -5°C° 0 mm 3 mps 755 mmHg 92%
19:00 -5°C° 0 mm 3 mps 755 mmHg 91%
20:00 -5°C° 0 mm 3 mps 755 mmHg 91%
21:00 -5°C° 0 mm 3 mps 755 mmHg 91%
22:00 -4°C° 0 mm 3 mps 755 mmHg 90%
23:00 -4°C° 0 mm 3 mps 755 mmHg 90%

4 December, Friday

Time Temperature Precipitation Wind Pressure Humidity
00:00 -4°C° 0 mm 3 mps 755 mmHg 90%
01:00 -4°C° 0 mm 3 mps 755 mmHg 91%
02:00 -4°C° 0 mm 3 mps 755 mmHg 91%
03:00 -4°C° 0 mm 3 mps 754 mmHg 90%
04:00 -5°C° 0 mm 3 mps 754 mmHg 90%
05:00 -5°C° 0 mm 4 mps 754 mmHg 89%
06:00 -5°C° 0 mm 4 mps 754 mmHg 89%
07:00 -5°C° 0 mm 4 mps 754 mmHg 89%
08:00 -5°C° 0 mm 4 mps 754 mmHg 90%
09:00 -5°C° 0 mm 4 mps 754 mmHg 89%
10:00 -5°C° 0 mm 4 mps 754 mmHg 89%
11:00 -5°C° 0 mm 4 mps 754 mmHg 88%
12:00 -5°C° 0 mm 4 mps 754 mmHg 88%
13:00 -4°C° 0 mm 4 mps 754 mmHg 88%
14:00 -4°C° 0 mm 4 mps 754 mmHg 87%
15:00 -4°C° 0 mm 4 mps 754 mmHg 88%
16:00 -5°C° 0 mm 4 mps 754 mmHg 88%
17:00 -5°C° 0 mm 4 mps 754 mmHg 89%
18:00 -5°C° 0 mm 4 mps 754 mmHg 88%
19:00 -5°C° 0 mm 4 mps 754 mmHg 88%
20:00 -5°C° 0 mm 4 mps 754 mmHg 88%
21:00 -5°C° 0 mm 4 mps 754 mmHg 89%
22:00 -4°C° 0 mm 4 mps 754 mmHg 89%
23:00 -4°C° 0 mm 4 mps 754 mmHg 89%
Show more